Погода в Каменном

Россия / Архангельская область     61°46′51″N   44°48′49″E
темп.,
°C
ветер,
м/с
пор.,
м/с
влажн.,
%
обл.,
%
осадки,
мм/ч
давл.,
гПа
погр.,
м
13 мая, чт
чт1300:00+14ююз35674 0.0 102471
03:00+12ююз25740 0.0 102481
06:00+15ююз25620 0.0 1023144
09:00+22ююз35470 0.0 1023632
12:00+25ююз363841 0.0 10222553
15:00+25ю453287 0.0 10202393
18:00+22ююз124910 0.0 1019141
21:00+17ююв26665 0.0 1018102
14 мая, пт
пт1400:00+15ю227390 0.0 101734
03:00+14ю278196 0.1 1017160
06:00+15ююз278898 0.8 1016309
09:00+18юз3474100 1.0 1015891
12:00+21зюз57536 0.1 10151615
15:00+23юз583733 0.1 10152497
18:00+20ююз485011 0.0 10151260
21:00+15юз2468100 0.0 101576
15 мая, сб
сб1500:00+13юз22699 0.0 101619
03:00+11ю227698 0.0 101618
06:00+14ю2574100 0.0 1015189
09:00+14ююз2591100 0.9 1015223
12:00+14вюв249689 2.6 1015164
15:00+20вюв246896 3.3 1012720
18:00+19ююв1479100 0.9 1010370
21:00+15ююв3996100 3.9 1007257
16 мая, вс
вс1600:00+15ююз4129288 2.4 1006444
03:00+13ююз514948 2.5 1006566
06:00+15ююз4119042 0.0 1006525
09:00+17ююз5127850 0.0 1006874
12:00+21юз7115152 0.0 10061837
15:00+23юз6104478 0.0 10052706
18:00+18зюз2661100 0.0 1006275
21:00+14юз228511 1.1 100739
17 мая, пн
пн1700:00+12з249613 0.4 100877
03:00+11с249967 1.3 1010125
06:00+11ссв238891 0.0 1012302
09:00+11ссв238697 0.0 1015376
12:00+14с227195 0.0 1017649
15:00+12с127476 0.1 1018264
18:00+16ссв12585 0.0 1018551
21:00+11в01814 0.0 101910